Temperature
9 8 8 8 7 7 7 6 6 5 5 5 5 5 4 4 3 3 2 2 1 1 0 -0 -0 -1 -1 -1 -2 -2 -2 -2 -3 -3 -2 -2 -2 -2
8 8 8 8 7 7 6 6 5 5 4 4 4 4 3 3 2 2 2 1 1 0 -0 -1 -1 -2 -2 -2 -2 -3 -3 -3 -3 -3 -3 -3 -3 -2
8 8 8 7 7 6 6 6 5 4 4 4 3 3 2 2 2 1 1 0 -0 -1 -1 -2 -2 -2 -3 -3 -3 -3 -4 -4 -4 -4 -4 -4 -3 -3
8 8 7 7 7 6 6 5 5 4 3 3 3 2 2 1 1 0 -0 -1 -1 -2 -2 -3 -3 -3 -4 -4 -4 -4 -4 -4 -4 -4 -4 -4 -4 -4
8 7 7 7 6 6 5 5 4 3 3 2 2 1 1 0 -0 -1 -1 -2 -2 -3 -3 -3 -4 -4 -4 -5 -5 -5 -5 -5 -5 -5 -5 -5 -5 -5
7 7 7 6 6 5 4 4 3 3 2 2 1 1 -0 -1 -2 -2 -2 -3 -3 -3 -4 -4 -4 -5 -5 -5 -5 -6 -6 -6 -6 -6 -6 -6 -5 -5
7 7 6 6 5 5 4 3 3 2 1 1 0 -1 -1 -2 -2 -3 -3 -4 -4 -4 -4 -5 -5 -5 -6 -6 -6 -6 -6 -6 -6 -6 -6 -6 -6 -6
7 6 6 5 5 4 4 3 2 1 0 -0 -1 -2 -2 -3 -3 -4 -4 -5 -5 -5 -6 -5 -6 -6 -6 -6 -7 -7 -7 -7 -7 -7 -7 -7 -7 -6
6 6 5 5 4 4 3 2 1 1 -0 -1 -2 -2 -3 -4 -4 -5 -5 -5 -6 -6 -6 -6 -6 -7 -7 -7 -7 -7 -7 -7 -7 -7 -7 -7 -7 -7
6 5 5 4 4 3 2 2 1 -0 -1 -2 -2 -3 -4 -4 -5 -5 -6 -6 -6 -6 -7 -7 -7 -7 -7 -7 -7 -8 -8 -8 -8 -8 -7 -7 -7 -7
5 4 4 3 3 2 1 1 0 -1 -1 -2 -3 -3 -4 -5 -5 -6 -6 -6 -7 -7 -7 -8 -8 -8 -7 -7 -7 -8 -8 -8 -8 -8 -8 -8 -8 -8
4 4 3 2 2 1 1 0 -1 -1 -2 -3 -3 -4 -5 -5 -6 -6 -7 -7 -8 -8 -8 -9 -9 -9 -9 -8 -8 -8 -8 -8 -8 -8 -8 -8 -8 -8
4 3 2 2 1 0 -0 -1 -2 -3 -3 -4 -4 -5 -5 -6 -6 -7 -7 -8 -8 -9 -9 -9 -10 -10 -10 -10 -8 -8 -9 -8 -8 -8 -8 -9 -8 -8
3 2 2 1 0 -0 -1 -2 -3 -3 -4 -4 -5 -5 -6 -6 -7 -7 -8 -8 -8 -9 -9 -10 -10 -10 -10 -10 -10 -9 -9 -9 -9 -9 -9 -8 -8 -8
2 2 1 0 -0 -1 -2 -3 -3 -4 -4 -5 -5 -6 -7 -7 -7 -8 -8 -8 -8 -9 -9 -10 -10 -10 -10 -11 -10 -10 -9 -9 -9 -9 -9 -8 -8 -8
2 1 0 -1 -1 -2 -3 -3 -4 -4 -5 -5 -6 -7 -7 -8 -8 -8 -9 -9 -9 -9 -9 -10 -10 -10 -10 -10 -10 -10 -10 -10 -10 -9 -9 -8 -8 -8
1 0 -0 -1 -2 -3 -3 -4 -4 -5 -5 -6 -7 -7 -7 -8 -8 -9 -9 -10 -10 -10 -10 -10 -10 -10 -10 -10 -9 -10 -10 -10 -10 -10 -9 -8 -8 -8
0 -0 -1 -2 -2 -3 -4 -4 -5 -5 -6 -7 -7 -8 -8 -9 -9 -9 -10 -10 -10 -11 -11 -11 -10 -10 -9 -9 -9 -10 -10 -10 -10 -9 -10 -9 -8 -8
-0 -1 -2 -2 -3 -4 -4 -5 -5 -6 -7 -7 -8 -8 -9 -9 -10 -10 -10 -11 -11 -11 -11 -11 -11 -11 -11 -11 -9 -9 -10 -10 -10 -9 -9 -9 -9 -8
-1 -1 -2 -3 -3 -4 -5 -5 -6 -6 -7 -8 -8 -9 -9 -10 -10 -10 -11 -11 -11 -11 -11 -11 -11 -11 -11 -11 -11 -9 -10 -10 -10 -10 -9 -9 -8 -8
-1 -2 -3 -3 -4 -4 -5 -6 -6 -7 -7 -8 -8 -9 -10 -10 -10 -11 -11 -11 -11 -11 -11 -11 -11 -11 -11 -11 -11 -10 -9 -9 -10 -10 -10 -9 -9 -8
-2 -2 -3 -4 -4 -5 -5 -6 -7 -7 -8 -8 -9 -9 -10 -10 -10 -11 -11 -11 -11 -11 -11 -11 -11 -11 -11 -11 -11 -10 -9 -9 -9 -9 -9 -10 -10 -9
-2 -3 -3 -4 -5 -5 -6 -6 -7 -8 -8 -9 -9 -9 -10 -10 -10 -11 -11 -11 -11 -11 -11 -11 -11 -11 -11 -11 -11 -10 -10 -9 -9 -8 -8 -9 -9 -9
Wind_Speed
6 6 4 3 3 3 2 3 3 3 4 4 2 2 3 4 6 7 8 12 16 17 19 20 20 21 21 22 22 23 23 24 24 24 24 24 24 23
5 5 4 3 3 3 3 3 3 4 4 3 2 2 3 5 8 8 10 13 16 18 19 20 20 20 21 22 22 23 24 23 23 23 23 23 22 22
5 6 5 4 3 3 2 2 2 2 4 4 3 3 3 4 6 8 10 11 12 16 19 20 20 21 21 22 22 23 23 22 21 21 21 22 22 22
6 6 5 3 3 3 2 3 3 3 3 5 4 3 4 4 4 5 7 10 11 15 18 19 20 20 21 22 22 21 21 20 19 19 20 20 21 21
6 6 5 4 4 2 2 2 2 2 2 3 4 3 3 4 4 5 6 6 10 13 16 17 19 20 21 21 21 20 20 19 19 19 19 19 20 20
5 5 5 5 4 3 2 2 1 1 2 2 4 4 4 4 4 4 5 4 6 10 13 15 17 19 20 21 20 19 18 18 18 18 19 19 19 19
5 5 5 5 3 3 2 2 1 1 1 2 3 4 4 4 4 4 5 5 6 5 4 7 10 9 13 17 17 17 18 18 18 18 19 19 18 18
6 5 5 4 3 2 1 1 1 1 1 1 2 3 4 4 3 4 4 6 5 3 5 7 5 6 7 11 17 19 18 17 18 18 18 18 18 18
6 5 4 3 3 2 1 1 1 2 2 1 2 3 4 4 4 4 4 5 6 6 5 6 5 5 7 14 20 19 17 17 18 18 18 18 18 18
6 5 5 3 3 3 2 2 1 2 3 2 2 3 3 3 2 3 4 5 5 5 4 5 5 5 8 11 16 16 17 18 19 19 18 17 17 17
6 5 5 4 3 4 3 2 1 2 4 6 6 7 8 9 8 4 4 5 6 5 3 3 4 7 6 5 10 16 19 20 20 19 19 18 17 16
5 5 6 5 4 4 3 2 0 2 2 3 5 6 6 7 9 4 2 4 5 4 3 4 4 5 5 4 5 11 13 17 20 20 19 18 17 11
5 4 3 5 5 4 3 1 1 2 2 2 3 3 3 3 3 4 3 2 4 4 4 4 4 4 4 6 6 5 6 8 12 13 15 18 18 14
5 4 4 6 5 4 3 3 4 5 3 2 2 3 3 3 3 4 6 6 5 6 8 6 4 4 5 7 6 6 7 9 7 6 7 15 17 18
5 7 7 6 5 3 3 4 5 3 2 2 2 3 3 3 3 3 5 6 8 8 9 8 5 5 5 7 7 7 7 7 5 6 6 7 7 8
6 7 7 6 4 3 3 3 2 1 1 1 2 3 3 3 3 3 4 4 4 5 7 9 8 5 5 7 8 9 7 6 7 8 8 7 7 8
6 4 3 2 2 2 2 2 2 2 2 2 2 3 3 4 4 4 3 4 4 5 6 5 8 9 7 7 6 7 7 7 7 8 9 9 8 6
7 4 3 2 2 1 1 1 1 1 2 2 2 3 3 4 4 5 4 4 5 5 5 5 6 6 5 4 6 5 5 6 7 8 7 9 9 8
5 4 3 2 2 1 1 0 1 1 1 2 2 3 3 4 4 5 5 5 5 5 5 5 5 5 7 8 6 5 6 9 8 8 7 7 9 10
4 3 3 2 2 1 1 0 1 1 2 2 2 3 3 4 4 5 5 6 6 6 6 5 5 5 6 6 6 7 12 9 8 9 8 8 7 11
3 3 3 2 2 1 1 0 0 1 2 2 2 3 3 3 4 5 5 9 7 5 6 6 6 11 5 4 6 7 7 12 13 9 8 8 7 5
4 3 3 2 2 1 1 0 1 1 2 2 2 3 3 3 4 5 5 5 5 6 6 6 7 6 4 6 8 9 9 9 13 16 13 10 6 5
4 3 2 2 2 2 1 1 1 2 2 2 2 3 3 4 4 5 5 5 5 6 7 6 6 5 5 5 6 7 9 9 8 8 8 14 16 15
Wind_Direction
194 195 197 200 196 203 197 187 200 248 265 260 272 273 260 265 274 274 277 286 295 300 302 304 303 303 304 305 306 306 305 304 303 302 301 300 300 301
182 185 193 196 195 197 203 208 200 210 248 261 265 279 293 295 295 295 287 296 300 302 303 305 305 306 307 308 308 308 307 306 305 305 304 303 304 304
180 186 200 190 185 194 196 204 214 211 251 277 281 297 312 303 307 301 296 298 301 304 305 307 308 309 310 311 310 310 310 308 308 309 309 309 309 308
185 182 191 175 182 187 192 212 225 226 236 272 289 298 293 297 301 300 305 306 306 307 309 311 311 312 313 312 312 312 312 313 313 313 312 312 311 310
171 175 178 169 186 183 191 212 232 253 255 271 286 297 306 317 317 313 312 310 314 315 315 315 316 317 317 316 315 316 317 317 316 316 316 315 314 314
158 163 164 167 175 176 191 211 226 261 286 292 297 310 313 323 330 317 317 315 314 315 313 315 317 319 319 319 320 320 320 320 318 319 319 319 319 317
148 149 149 146 151 161 170 191 186 223 283 291 296 311 312 331 322 316 314 312 306 300 315 315 313 308 313 317 319 318 320 321 321 321 321 321 320 318
147 141 141 137 139 153 201 211 178 206 262 285 290 300 303 308 312 321 320 326 316 312 320 310 313 308 307 311 317 320 322 322 322 322 321 320 319 318
137 135 128 124 120 116 123 46 2 347 329 299 286 287 297 305 315 313 313 312 300 304 317 302 305 306 309 318 320 320 323 326 326 323 321 320 319 317
126 129 128 122 116 111 100 78 43 0 336 328 276 281 301 302 302 313 309 312 302 305 319 300 308 312 314 310 319 330 334 332 328 326 325 324 322 320
119 117 121 123 111 97 97 89 22 338 340 337 337 335 336 337 345 357 345 336 321 313 322 316 315 319 305 297 322 335 333 331 330 329 328 328 327 327
113 111 110 111 108 103 107 108 3 308 339 345 343 341 345 346 347 355 336 324 320 310 338 340 317 330 317 303 319 324 325 330 332 330 330 330 330 329
124 118 114 112 105 98 88 98 337 360 11 357 342 340 345 341 337 334 318 293 296 290 306 328 310 315 294 306 308 308 316 321 321 320 327 330 330 330
129 127 120 114 102 88 71 33 25 30 31 13 356 341 333 327 324 323 319 306 287 281 290 297 288 300 305 307 304 310 319 314 310 308 314 327 328 326
122 123 117 109 95 76 55 46 44 46 31 7 338 322 317 317 325 327 323 318 309 304 302 297 287 292 292 298 301 305 314 312 309 319 316 316 312 313
113 116 111 103 92 79 65 54 48 35 22 339 320 318 326 334 332 327 323 324 321 314 310 308 298 290 291 288 291 298 303 303 316 320 319 312 306 307
120 104 93 97 86 73 64 57 41 19 8 349 344 335 333 337 333 332 326 328 322 318 318 314 311 300 283 281 287 289 295 302 307 317 321 317 309 301
119 120 124 121 118 106 77 37 22 6 356 347 338 334 335 333 328 329 329 325 320 314 314 315 326 329 328 306 273 287 298 306 311 312 314 316 313 311
115 125 132 133 129 121 109 75 346 343 351 341 333 334 334 330 329 327 325 323 319 315 315 319 328 334 332 329 306 309 320 317 314 311 307 308 306 308
119 133 138 136 131 124 113 70 354 346 344 336 330 326 323 323 324 322 321 319 319 318 319 322 324 323 317 309 299 301 311 311 314 314 312 306 294 298
132 134 136 135 132 127 114 69 341 319 322 320 316 316 316 315 313 314 316 322 324 320 321 316 307 321 309 299 306 308 307 317 322 317 314 313 315 310
137 138 138 138 139 141 138 141 305 306 310 302 299 304 309 311 310 309 313 315 315 313 311 307 310 317 319 317 316 315 315 319 326 329 327 322 320 317
140 140 141 143 147 152 151 188 266 280 285 291 295 301 307 309 307 306 307 307 312 315 318 320 321 318 310 308 308 311 315 322 328 330 322 330 332 322
Height
1513 1514 1514 1515 1515 1515 1515 1514 1513 1509 1507 1507 1506 1505 1503 1501 1499 1496 1494 1491 1487 1484 1481 1478 1475 1472 1468 1465 1462 1458 1455 1452 1449 1447 1444 1442 1440 1437
1509 1510 1510 1510 1511 1511 1510 1510 1509 1507 1504 1503 1502 1501 1499 1496 1494 1491 1488 1485 1482 1479 1475 1472 1469 1465 1462 1459 1455 1452 1449 1445 1442 1440 1437 1435 1433 1430
1504 1505 1506 1506 1506 1506 1506 1505 1504 1503 1500 1498 1498 1496 1493 1491 1488 1485 1482 1479 1476 1473 1470 1466 1463 1460 1456 1452 1449 1446 1442 1439 1436 1433 1431 1428 1426 1424
1499 1500 1501 1501 1501 1501 1501 1500 1499 1498 1496 1493 1491 1490 1487 1485 1482 1479 1476 1473 1470 1467 1464 1461 1457 1454 1450 1447 1443 1440 1436 1433 1430 1427 1425 1422 1420 1418
1495 1496 1496 1497 1497 1496 1496 1495 1494 1493 1491 1489 1486 1484 1482 1479 1476 1473 1471 1468 1465 1461 1458 1455 1452 1448 1445 1441 1438 1434 1431 1428 1425 1422 1420 1417 1415 1412
1491 1492 1492 1492 1492 1492 1491 1491 1490 1488 1487 1484 1482 1479 1477 1474 1471 1468 1464 1462 1459 1456 1453 1449 1446 1442 1439 1436 1433 1429 1426 1423 1420 1417 1415 1412 1410 1407
1487 1487 1488 1488 1488 1488 1487 1486 1485 1484 1482 1479 1477 1474 1472 1469 1466 1463 1459 1456 1453 1450 1446 1443 1440 1436 1434 1430 1427 1425 1422 1419 1416 1413 1410 1408 1405 1403
1482 1483 1484 1484 1484 1484 1483 1482 1481 1480 1477 1475 1473 1471 1468 1466 1462 1459 1456 1452 1447 1446 1442 1438 1436 1432 1429 1425 1423 1421 1418 1415 1412 1409 1406 1403 1401 1398
1479 1479 1480 1480 1480 1480 1479 1478 1477 1476 1474 1473 1470 1467 1465 1462 1459 1456 1453 1449 1445 1442 1437 1433 1431 1427 1424 1421 1418 1416 1414 1411 1408 1405 1402 1399 1396 1394
1475 1476 1476 1476 1476 1476 1475 1474 1473 1472 1470 1468 1467 1464 1462 1459 1456 1453 1450 1446 1442 1439 1435 1430 1426 1423 1420 1417 1415 1412 1410 1407 1404 1401 1398 1395 1393 1390
1472 1472 1473 1473 1473 1472 1471 1470 1469 1468 1467 1465 1463 1461 1458 1456 1453 1450 1446 1442 1437 1434 1432 1428 1423 1419 1416 1413 1411 1409 1406 1403 1400 1398 1395 1392 1389 1387
1468 1469 1470 1469 1469 1468 1468 1467 1466 1464 1463 1461 1459 1457 1455 1452 1450 1447 1443 1440 1435 1432 1429 1426 1422 1418 1413 1410 1408 1406 1403 1399 1397 1394 1391 1389 1386 1383
1465 1466 1466 1466 1466 1465 1464 1464 1463 1461 1459 1458 1456 1454 1451 1449 1446 1444 1441 1438 1435 1431 1429 1425 1421 1418 1415 1409 1404 1403 1400 1396 1393 1391 1388 1386 1383 1381
1462 1463 1463 1463 1463 1462 1462 1461 1460 1458 1456 1455 1452 1450 1448 1445 1443 1440 1438 1435 1433 1430 1427 1424 1420 1417 1412 1407 1403 1399 1397 1394 1391 1388 1385 1382 1379 1377
1460 1460 1460 1460 1460 1460 1459 1458 1457 1455 1453 1452 1449 1447 1445 1443 1440 1438 1435 1432 1430 1427 1424 1421 1418 1415 1411 1407 1402 1398 1394 1391 1389 1386 1382 1379 1376 1373
1456 1457 1458 1458 1458 1457 1456 1455 1454 1453 1451 1449 1447 1445 1443 1440 1438 1435 1432 1429 1426 1424 1422 1419 1416 1412 1408 1404 1401 1397 1394 1390 1386 1383 1379 1376 1373 1370
1453 1454 1455 1455 1455 1454 1454 1452 1451 1450 1449 1447 1445 1443 1440 1438 1436 1433 1430 1427 1424 1421 1418 1416 1413 1410 1406 1402 1398 1395 1392 1388 1385 1381 1376 1372 1370 1368
1451 1451 1452 1452 1452 1452 1451 1450 1449 1448 1446 1445 1443 1441 1438 1436 1434 1431 1429 1426 1423 1420 1417 1414 1410 1406 1403 1400 1398 1394 1390 1386 1382 1379 1375 1370 1366 1364
1449 1449 1450 1450 1450 1449 1448 1448 1447 1445 1444 1442 1440 1439 1437 1434 1432 1429 1427 1424 1421 1419 1416 1413 1410 1406 1402 1398 1396 1394 1389 1384 1380 1376 1373 1369 1365 1361
1446 1447 1447 1447 1447 1447 1446 1445 1444 1443 1441 1440 1438 1436 1435 1432 1430 1428 1425 1423 1420 1417 1415 1412 1409 1406 1404 1400 1395 1391 1389 1384 1379 1375 1371 1367 1363 1361
1444 1445 1445 1445 1445 1444 1444 1443 1442 1440 1439 1438 1436 1434 1433 1431 1429 1427 1424 1422 1419 1416 1413 1411 1409 1406 1403 1399 1394 1389 1387 1384 1380 1375 1370 1365 1361 1357
1442 1442 1442 1442 1442 1442 1441 1440 1439 1438 1437 1435 1434 1432 1431 1429 1427 1425 1423 1421 1418 1416 1413 1410 1407 1404 1401 1397 1393 1389 1384 1381 1378 1374 1370 1367 1363 1358
1439 1440 1440 1440 1440 1439 1439 1438 1437 1436 1434 1433 1432 1430 1429 1427 1426 1424 1422 1420 1417 1414 1411 1408 1406 1403 1400 1396 1393 1388 1384 1380 1376 1372 1369 1366 1363 1359